Preview of NWS' New Version of Forecast
This preview is not operational and should not be used for support decisions.
Latest weather observations around

Kansas City, Kansas City Downtown Airport (KMKC)

Using English Units (Switch to International System of Units)
Date/ Time (CDT) Wind (mph) Vis. (mi) Weather Sky Cond. Temp (°F) Rel. Humidity Wind Chill (°F) Heat Index (°F) Pressure Precip. (in)
Air Dwpt 6 hour Altimeter (inHg) Sea level (inHg) 1 hr 3 hr 6 hr
Max Min
Apr 19 12:54 N 10 10 Clear CLR 52 30     43%     30.45 30.45      
Apr 19 11:54 NNW 10 10 Mostly Clear FEW045 50 30     46% 46   30.46 30.47      
Apr 19 10:54 N 8 10 Clear CLR 48 30     50% 44   30.46 30.46      
Apr 19 08:54 NNW 6 10 Clear CLR 39 29     67% 35   30.43 30.44      
Apr 19 07:54 NNW 7 10 Clear CLR 36 28     73% 30   30.41 30.43      
Apr 19 06:54 N 8 10 Clear CLR 34 27     75% 27   30.38 30.39      
Apr 19 05:54 N 9 10 Clear CLR 34 27     75% 27   30.34 30.35      
Apr 19 04:54 N 10 10 Clear CLR 36 28     73% 29   30.31 30.32      
Apr 19 03:54 N 9 10 Cloudy SCT026 BKN032 OVC042 41 29     62% 35   30.27 30.28      
Apr 19 02:54 WNW 7 10 Cloudy OVC037 40 28     62% 35   30.25 30.26      
Apr 19 01:54 W 8 10 Cloudy OVC031 41 28     60% 36   30.24 30.25      
Apr 18 23:54 W 7 10 Cloudy OVC050 40 26     57% 35   30.22 30.23      
Apr 18 22:54 NW 9 10 Mostly Clear FEW055 40 26     57% 34   30.23 30.23      
Apr 18 21:54 NW 7 10 Clear CLR 41 25     53% 36   30.21 30.22      
Apr 18 20:54 NW 18 10 Clear CLR 42 24     49% 34   30.19 30.19      
Apr 18 19:54 NNW 16 10 Mostly Cloudy FEW042 BKN055 44 27     51% 37   30.16 30.16      
Apr 18 18:54 NW 15 10 Cloudy BKN047 OVC055 46 28     49% 40   30.12 30.12      
Apr 18 17:54 NW 9 10 Cloudy OVC050 45 27     49% 40   30.1 30.1      
Apr 18 16:54 WNW 13 10 Cloudy SCT042 OVC050 44 28     53% 38   30.09 30.09      
Apr 18 15:54 NW 16 10 Cloudy OVC036 44 29     55% 37   30.07 30.07      
Apr 18 14:54 NW 20 10 Cloudy and Windy OVC031 44 30     58% 36   30.04 30.04      
Apr 18 13:54 WNW 17 10 Cloudy OVC031 44 30     58% 36   30 30      
Apr 18 13:36 WNW 13 10 Cloudy OVC030 44 30     58% 38   30        
Apr 18 12:54 W 15 10 Cloudy OVC027 44 31     60% 37   29.97 29.97      
Apr 18 11:54   10 Cloudy OVC026 45 32     60%     29.94 29.93      
Apr 18 10:54   10 Cloudy OVC027 45 33     63%     29.89 29.88      
Apr 18 09:54 W 15 10 Cloudy OVC026 45 33     63% 38   29.85 29.84      
Apr 18 09:26   10 Cloudy OVC029 45 33     63%     29.82        
Apr 18 08:54   10 Mostly Cloudy BKN033 46 33     60%     29.8 29.79      
Apr 18 07:54 WNW 14 10 Clear CLR 45 33     63% 39   29.75 29.75      
Apr 18 06:54 W 13 10 Clear CLR 48 34     58% 43   29.69 29.69      
Apr 18 05:54 WNW 13 10 Clear CLR 49 38     66% 44   29.6 29.59      
Apr 18 04:54 E 7 9 Mostly Cloudy BKN040 50 38     63% 47   29.52 29.51      
Apr 18 03:54 7 10 Cloudy BKN055 OVC070 52 38     59%     29.48 29.47      
Apr 18 02:54 3 10 Clear CLR 53 38     56%     29.48 29.47      
Apr 18 01:54 E 8 10 Clear CLR 54 37     53%     29.52 29.52      
Apr 18 00:54 E 13 10 Clear CLR 55 37     51%     29.52 29.52      
Apr 17 23:54 E 14 10 Clear CLR 56 37     49%     29.55 29.54      
Apr 17 22:54 E 10 10 Clear CLR 58 36     44%     29.6 29.59      
Apr 17 21:54 E 7 10 Clear CLR 60 39     46%     29.63 29.63      
Apr 17 20:54 E 7 10 Clear CLR 62 39     43%     29.63 29.62      
Apr 17 19:54 E 8 10 Clear CLR 65 39     38%     29.62 29.62      
Apr 17 17:54 E 10 10 Clear CLR 68 39     35%     29.65 29.64      
Apr 17 16:54 E 10 10 Clear CLR 67 38     34%     29.68 29.67      
Apr 17 15:54 E 8 10 Clear CLR 66 38     36%     29.7 29.7      
Apr 17 14:54 E 11 10 Clear CLR 63 36     37%     29.74 29.73      
Apr 17 13:54 ENE 10 10 Clear CLR 61 33     35%     29.77 29.77      
Apr 17 12:54 E 14 10 Clear CLR 56 31     38%     29.81 29.81      
Apr 17 11:54 E 11 10 Clear CLR 53 31     43%     29.84 29.84      
Apr 17 10:54 E 16 10 Clear CLR 48 30     50% 42   29.89 29.89      
Apr 17 09:54 ENE 11 10 Clear CLR 44 28     53% 38   29.92 29.92      
Apr 17 08:54 E 16 10 Clear CLR 40 27     60% 31   29.94 29.94      
Apr 17 07:54 E 15 10 Clear CLR 37 26     64% 28   29.97 29.98      
Apr 17 06:54 ENE 10 10 Clear CLR 36 26     67% 29   29.97 29.98      
Apr 17 05:54 ENE 9 10 Clear CLR 37 26     64% 30   29.95 29.96      
Apr 17 04:54 ENE 8 10 Clear CLR 38 27     64% 32   29.96 29.97      
Apr 17 03:54 ENE 5 10 Clear CLR 39 28     64% 36   29.99 29.99      
Apr 17 02:54 E 5 10 Clear CLR 40 28     62% 37   30.02 30.02      
Apr 17 01:54 E 5 10 Clear CLR 41 28     60% 38   30.02 30.03      
Apr 17 00:54 ENE 5 10 Clear CLR 42 29     59% 39   30.04 30.04      
Apr 16 23:54 ENE 6 10 Clear CLR 44 29     55% 41   30.05 30.06      
Apr 16 22:54 Calm 10 Clear CLR 44 29     55%     30.07 30.08      
Apr 16 21:54 Calm 10 Clear CLR 46 30     53%     30.07 30.08      
Apr 16 20:54 Calm 10 Clear CLR 48 28     46%     30.06 30.06      
Apr 16 19:54 N 6 10 Clear CLR 47 28     48% 44   30.03 30.04      
Apr 16 18:54 Calm 10 Clear CLR 52 28     39%     30.03 30.04      
Apr 16 17:54 N 6 10 Clear CLR 52 28     39%     30.04 30.05      
Apr 16 16:54   10 Clear CLR 51 28     41%     30.06 30.07      
Apr 16 15:54 NNW 7 10 Clear CLR 49 27     42% 46   30.09 30.1      
Apr 16 14:54 NW 10 10 Clear CLR 48 27     44% 43   30.12 30.14      
Apr 16 13:54 W 7 10 Clear CLR 44 25     47% 40   30.15 30.17      
Jun 12 04:54 S 9 10 Clear CLR 74 65     74%   74 29.89 29.86      
Jun 11 15:54   10 Clear CLR 92 69     47%   97 29.79 29.76      
Jun 11 13:54 S 17 10 Clear CLR 91 71     52%   98 29.81 29.78      
Jun 11 05:54   10 Clear CLR 73 65     76%   74 29.83 29.8      
Jun 10 19:54   10 Partly Cloudy SCT042 84 69     61%   88 29.74 29.72      
Jun 10 07:54 SSW 11 10 Clear CLR 73 63     71%   73 29.83 29.81      
Jun 10 06:54 S 9 10 Clear CLR 70 61     73%     29.83 29.81      
Jun 07 13:54 ENE 7 10 Clear CLR 81 47     30%   80 30.08 30.06